Temperature
5 4 3 2 1 1 -0 -1 -2 -2 -3 -4 -4 -5 -6 -7 -8 -8 -9 -9 -9 -9 -9 -9 -10 -10 -11 -11 -11 -12 -12 -12 -13 -12 -12 -11 -11 -10 -10 -10 -9 -8 -7
5 3 3 2 1 0 -0 -1 -2 -2 -3 -4 -4 -5 -6 -6 -7 -8 -8 -8 -9 -9 -9 -9 -9 -10 -10 -11 -11 -12 -12 -12 -12 -12 -12 -11 -11 -11 -11 -10 -10 -9 -8
5 3 2 2 1 0 -0 -1 -2 -2 -3 -4 -4 -5 -5 -6 -7 -8 -8 -8 -8 -8 -9 -9 -10 -10 -10 -11 -11 -11 -11 -11 -11 -12 -12 -11 -11 -11 -11 -11 -10 -9 -8
4 3 2 2 1 0 -1 -1 -2 -2 -3 -3 -4 -5 -5 -6 -7 -7 -8 -8 -8 -8 -9 -9 -10 -10 -10 -11 -11 -11 -11 -11 -11 -11 -12 -12 -12 -11 -11 -11 -11 -9 -8
4 3 2 2 1 -0 -1 -1 -2 -2 -3 -4 -4 -4 -5 -6 -6 -7 -8 -8 -8 -8 -9 -9 -10 -10 -11 -11 -11 -11 -11 -11 -11 -11 -12 -12 -12 -12 -12 -12 -11 -10 -8
5 4 3 2 1 -0 -1 -2 -2 -2 -3 -4 -4 -4 -5 -5 -6 -7 -9 -8 -8 -9 -9 -9 -10 -10 -11 -11 -11 -11 -11 -11 -11 -11 -12 -12 -12 -12 -12 -12 -12 -11 -11
5 4 2 1 1 -0 -1 -2 -2 -2 -3 -3 -4 -4 -5 -5 -6 -8 -8 -8 -8 -9 -9 -10 -10 -11 -11 -10 -10 -11 -11 -11 -11 -12 -12 -12 -12 -12 -12 -12 -11 -11 -11
6 4 3 2 1 -0 -1 -1 -2 -3 -3 -3 -4 -4 -5 -5 -6 -7 -8 -8 -9 -9 -9 -10 -10 -10 -10 -10 -10 -10 -11 -11 -12 -12 -12 -12 -12 -12 -11 -11 -11 -11 -10
6 4 3 2 1 -0 -1 -1 -2 -3 -3 -3 -4 -4 -5 -5 -6 -7 -8 -9 -9 -9 -9 -10 -10 -10 -10 -9 -10 -11 -11 -11 -12 -12 -12 -12 -12 -12 -12 -11 -11 -11 -11
7 5 4 2 1 -0 -1 -1 -2 -3 -3 -3 -4 -4 -5 -5 -6 -7 -8 -9 -9 -9 -9 -10 -10 -10 -10 -10 -11 -11 -12 -11 -12 -12 -12 -12 -12 -12 -12 -12 -12 -12 -12
7 5 3 2 1 -0 -1 -2 -2 -3 -3 -3 -4 -4 -5 -5 -6 -7 -8 -9 -9 -9 -10 -10 -10 -10 -10 -11 -11 -11 -11 -11 -12 -12 -12 -12 -12 -12 -12 -12 -12 -12 -11
6 4 3 2 0 -0 -1 -2 -2 -2 -3 -3 -4 -4 -5 -5 -6 -7 -8 -9 -9 -9 -10 -10 -10 -10 -11 -11 -11 -11 -12 -12 -12 -12 -13 -13 -12 -12 -12 -11 -11 -11 -10
5 4 3 1 0 -1 -1 -2 -2 -2 -3 -3 -4 -4 -5 -5 -6 -7 -8 -8 -9 -10 -10 -10 -10 -10 -11 -11 -11 -12 -12 -12 -12 -13 -13 -13 -12 -12 -12 -11 -10 -10 -9
4 3 2 1 0 -1 -1 -2 -2 -2 -2 -3 -4 -4 -5 -5 -6 -7 -8 -8 -9 -9 -9 -9 -10 -10 -10 -11 -11 -11 -12 -12 -13 -13 -13 -13 -12 -12 -11 -11 -10 -9 -8
3 2 2 1 0 -1 -1 -1 -2 -2 -2 -3 -4 -4 -5 -5 -6 -8 -9 -9 -9 -10 -10 -9 -9 -10 -10 -10 -11 -11 -11 -12 -12 -12 -12 -12 -12 -12 -11 -10 -10 -9 -8
2 1 1 0 -0 -1 -1 -2 -2 -3 -3 -3 -4 -4 -5 -6 -7 -8 -9 -9 -9 -10 -9 -9 -10 -10 -10 -11 -11 -11 -11 -12 -12 -12 -12 -12 -12 -12 -11 -10 -9 -9 -8
2 1 0 0 -0 -1 -1 -1 -2 -3 -3 -4 -4 -5 -5 -6 -7 -7 -8 -9 -9 -9 -9 -9 -10 -10 -10 -11 -11 -11 -11 -11 -12 -12 -12 -12 -12 -11 -11 -10 -9 -8 -7
1 -0 -1 -1 -0 -0 -1 -1 -2 -3 -3 -3 -4 -5 -5 -6 -7 -7 -8 -8 -8 -9 -9 -9 -10 -10 -10 -11 -11 -11 -11 -11 -11 -11 -12 -12 -12 -11 -11 -10 -10 -9 -8
0 -1 -2 -2 -1 -1 -1 -1 -2 -3 -3 -4 -4 -5 -5 -6 -6 -7 -7 -8 -8 -8 -9 -9 -10 -10 -10 -11 -11 -11 -11 -11 -11 -11 -11 -12 -11 -11 -11 -10 -9 -8 -7
-1 -2 -3 -3 -3 -2 -2 -2 -2 -3 -3 -4 -4 -5 -5 -6 -6 -7 -7 -8 -8 -8 -9 -9 -9 -10 -10 -10 -11 -11 -11 -11 -11 -11 -11 -11 -11 -11 -11 -10 -9 -8 -7
-1 -3 -4 -5 -4 -3 -2 -2 -2 -3 -3 -4 -4 -5 -5 -6 -6 -7 -7 -7 -8 -8 -9 -9 -9 -10 -10 -10 -10 -11 -11 -11 -11 -11 -11 -11 -11 -11 -11 -10 -9 -8 -7
-2 -3 -4 -5 -5 -4 -3 -2 -2 -3 -3 -4 -4 -5 -5 -6 -6 -7 -7 -7 -8 -8 -8 -9 -9 -10 -10 -10 -10 -11 -11 -11 -11 -11 -11 -11 -11 -11 -11 -10 -9 -8 -7
-3 -4 -5 -5 -5 -5 -4 -3 -2 -3 -3 -4 -4 -5 -5 -6 -6 -7 -7 -7 -8 -8 -8 -9 -9 -9 -10 -10 -10 -10 -11 -11 -11 -11 -11 -11 -11 -11 -11 -10 -9 -8 -7
-4 -4 -5 -6 -6 -6 -4 -3 -2 -3 -3 -4 -4 -5 -5 -6 -6 -7 -7 -7 -8 -8 -8 -9 -9 -9 -10 -10 -10 -10 -11 -11 -11 -11 -11 -11 -11 -11 -11 -10 -10 -9 -8
-4 -5 -6 -6 -6 -6 -5 -4 -3 -3 -4 -4 -4 -5 -5 -6 -6 -7 -7 -7 -8 -8 -8 -8 -9 -9 -9 -10 -10 -10 -10 -11 -11 -11 -11 -11 -11 -11 -11 -11 -10 -9 -8
-5 -6 -6 -7 -7 -6 -5 -4 -3 -3 -3 -4 -4 -4 -5 -5 -6 -7 -7 -7 -8 -8 -8 -8 -9 -9 -9 -9 -10 -10 -10 -11 -11 -11 -11 -11 -11 -11 -11 -11 -10 -9 -8
Wind_Speed
15 13 11 11 10 9 9 9 9 7 7 8 8 8 8 9 8 9 11 11 12 13 13 14 16 16 13 12 11 11 11 12 16 16 14 12 13 13 14 14 16 14 15
14 13 12 10 10 9 9 9 8 8 7 7 7 8 9 9 9 10 13 13 13 15 16 16 18 16 16 13 11 12 12 12 14 18 16 12 13 12 12 12 12 13 11
13 13 12 11 11 11 10 9 8 8 8 7 7 8 9 10 11 11 12 14 14 16 16 17 17 16 16 13 13 13 12 13 13 15 16 12 11 10 11 12 12 10 12
14 14 14 14 13 11 9 8 8 8 7 8 8 9 10 11 11 12 13 14 15 15 14 14 14 14 15 14 13 14 13 13 13 12 13 13 11 9 8 10 12 9 10
15 15 15 13 11 9 9 8 8 7 8 7 8 9 10 9 10 12 13 13 12 11 10 11 12 16 18 15 13 11 10 11 10 11 12 12 11 9 9 9 12 11 11
17 16 13 11 11 10 10 9 8 8 8 7 8 9 10 9 16 21 17 9 8 9 9 10 11 13 17 21 23 22 19 13 10 11 12 12 12 11 10 11 11 11 8
17 15 14 13 12 12 11 9 9 8 8 8 8 9 10 12 18 19 20 10 6 8 9 9 11 12 17 12 19 22 18 21 20 14 13 13 13 12 12 13 12 12 12
16 15 14 14 13 11 10 10 9 7 7 7 8 9 9 11 16 18 19 7 7 8 9 9 10 11 15 17 13 9 9 11 15 12 11 13 13 13 13 13 12 12 11
18 17 16 15 14 12 12 12 9 7 8 7 7 8 8 10 14 16 16 5 6 8 9 9 11 11 21 23 10 8 10 10 14 17 19 18 20 19 15 9 7 8 10
20 17 16 15 14 14 13 11 8 8 8 7 7 7 7 8 12 14 15 5 7 7 7 8 15 18 22 20 9 8 12 11 8 10 13 15 13 14 17 9 7 8 8
14 14 14 15 15 13 11 10 8 8 7 7 7 7 7 8 10 12 14 6 6 7 7 7 10 21 21 20 17 10 15 14 8 10 10 10 9 8 8 8 8 8 9
13 15 15 15 13 12 11 10 9 8 7 7 6 6 5 6 8 10 13 13 12 6 7 7 10 19 19 19 15 17 21 17 9 9 10 10 9 9 8 9 10 10 12
15 16 15 15 13 12 12 11 8 8 7 6 5 6 5 4 6 11 12 13 14 7 6 13 15 18 17 13 17 20 16 10 10 10 10 10 10 9 9 9 9 9 12
16 16 14 14 14 13 11 10 9 8 8 7 6 6 5 4 5 6 6 7 9 9 6 9 14 15 13 14 14 12 10 10 11 10 11 10 10 9 9 8 8 8 7
15 14 14 14 13 13 12 11 11 9 9 8 7 6 5 5 7 10 7 5 5 5 5 4 5 7 8 8 8 8 8 9 10 10 10 11 11 11 10 9 8 7 5
14 14 12 12 11 11 10 9 14 13 14 16 13 10 8 9 10 10 10 10 10 10 5 4 6 7 9 9 10 10 9 10 10 10 10 11 11 11 11 10 9 8 8
16 15 13 13 13 12 11 11 9 11 14 14 14 13 11 10 9 9 8 7 7 6 3 4 6 7 8 9 9 9 9 10 9 9 10 10 11 11 11 11 10 9 9
15 17 15 12 13 12 12 11 10 9 8 6 8 11 10 9 8 7 6 3 3 3 3 4 5 7 8 8 8 9 9 9 9 9 9 9 10 11 11 11 10 11 10
14 11 12 11 11 11 11 11 10 10 8 6 4 5 9 7 6 5 2 1 3 4 4 5 5 6 7 7 8 8 8 9 9 9 8 9 10 10 10 11 11 15 11
13 20 16 11 11 11 11 11 10 10 9 8 7 6 5 4 3 3 3 3 3 4 4 5 6 6 7 7 7 8 8 8 9 8 8 9 9 10 11 12 12 11 10
11 15 22 14 11 12 12 12 11 10 9 9 7 8 11 6 5 5 4 4 4 4 4 5 6 6 6 6 7 7 8 8 8 7 8 9 9 10 10 10 11 11 11
11 11 11 11 12 11 12 11 11 11 10 9 6 7 13 7 5 4 4 4 4 4 4 5 5 5 6 6 7 7 7 7 7 7 8 8 9 10 10 10 11 11 11
11 12 11 11 11 15 14 11 11 11 10 9 8 8 7 6 6 5 5 4 4 4 4 4 5 5 6 6 6 6 6 7 6 6 7 8 9 10 10 11 12 13 12
12 13 13 12 12 12 12 12 11 11 10 10 9 8 7 7 6 5 4 3 3 3 4 4 5 7 9 7 6 5 5 5 4 4 6 7 9 10 10 11 11 13 12
12 12 13 13 13 13 13 12 12 11 11 10 10 9 8 7 6 5 4 4 3 3 4 5 4 6 8 9 8 6 7 7 8 6 5 6 8 9 10 11 11 12 11
12 13 12 12 12 12 12 12 12 12 11 10 10 9 8 8 7 6 5 4 3 3 4 4 5 7 8 7 7 6 6 6 9 10 7 6 8 9 10 10 12 11 12
Wind_Direction
195 196 195 196 199 201 208 218 224 231 235 242 247 252 257 260 259 261 265 269 268 273 274 272 273 273 272 268 265 265 267 270 279 288 289 291 290 293 297 297 297 295 294
195 194 198 194 194 202 213 220 223 231 234 239 247 256 262 266 263 264 272 277 273 276 277 277 277 277 272 268 265 265 267 268 273 284 290 291 289 290 291 293 299 298 294
191 193 196 198 199 207 214 218 221 228 236 243 250 259 265 269 270 270 270 274 274 274 277 279 280 278 274 269 263 264 267 272 271 279 287 290 288 287 290 293 292 288 290
192 195 201 204 205 207 210 213 219 225 237 249 254 260 266 270 272 274 274 272 274 276 276 277 278 276 274 268 266 263 266 272 274 279 287 290 288 284 283 294 298 292 290
194 199 206 203 199 200 205 212 218 228 243 249 260 267 270 274 272 269 268 270 275 280 279 278 282 289 289 285 279 272 268 274 279 285 288 290 290 293 291 291 293 295 291
197 203 201 192 194 201 207 212 221 232 243 252 259 266 273 278 289 296 297 287 287 285 287 289 292 294 295 299 299 296 293 293 293 287 290 287 287 286 286 285 286 289 292
200 200 195 193 198 204 208 212 223 232 242 252 259 263 269 279 295 300 305 310 291 285 286 293 302 303 306 291 288 291 293 296 297 294 288 285 286 283 279 278 273 270 268
200 198 195 193 198 199 205 217 225 229 238 250 259 264 269 281 299 305 309 314 289 281 281 284 288 289 294 295 288 278 266 275 284 286 276 277 277 275 268 267 269 271 270
203 200 196 192 194 197 209 219 223 225 237 245 253 260 266 282 301 305 311 291 288 283 283 287 297 292 301 316 327 303 296 290 298 302 304 304 304 306 302 293 281 277 282
206 201 193 190 193 200 209 215 216 221 235 244 253 254 263 274 296 307 312 290 292 290 289 293 311 315 319 332 332 311 307 304 303 305 307 306 301 298 300 293 280 273 274
198 190 188 191 195 199 202 207 211 220 230 239 253 259 264 273 295 307 311 309 299 301 308 309 310 320 329 335 335 320 317 330 322 306 304 301 296 286 280 272 258 253 252
184 187 189 190 191 194 196 204 208 214 226 240 249 261 254 266 290 300 311 319 323 309 308 306 310 327 335 336 333 329 336 337 319 312 313 311 309 302 293 282 268 254 247
185 190 189 187 190 189 192 198 203 208 220 234 238 254 260 257 279 302 311 318 323 322 307 321 330 334 336 331 329 336 339 328 319 321 318 315 310 301 298 293 283 268 256
191 192 188 187 189 191 192 196 200 206 213 222 230 241 251 260 272 280 279 291 308 314 314 324 334 336 335 331 332 331 327 321 325 321 316 314 314 312 310 307 304 300 284
193 192 190 191 189 191 196 200 201 206 205 209 217 222 230 250 267 287 300 293 298 305 327 326 326 330 331 328 327 327 326 327 328 325 322 323 323 323 321 320 311 308 290
193 193 191 190 189 190 192 201 216 213 223 229 225 220 230 246 275 294 306 316 324 333 345 327 328 329 328 327 328 328 327 329 328 327 326 326 325 325 323 323 321 315 306
197 192 190 188 188 188 189 190 196 214 224 229 232 237 239 251 271 287 299 319 325 338 335 312 316 320 320 321 321 321 321 322 322 324 325 326 327 326 326 327 327 324 317
198 196 191 190 188 188 189 189 187 188 197 214 225 232 236 244 260 275 292 322 318 322 296 300 308 314 316 318 320 320 320 321 325 326 325 326 327 327 327 327 326 323 320
198 197 192 187 186 186 185 183 183 186 191 189 185 219 224 229 242 257 263 218 266 287 295 299 303 310 313 314 315 316 316 319 322 325 325 327 328 328 328 327 324 325 325
200 200 191 185 184 183 183 182 182 185 189 191 197 199 190 192 207 227 229 232 250 271 285 295 301 306 310 311 312 314 316 319 323 326 326 327 327 327 328 327 328 327 324
194 199 197 189 187 186 186 186 183 183 189 195 198 196 191 191 205 213 221 232 242 262 279 291 298 305 307 308 310 313 316 319 322 326 327 328 329 331 329 328 328 327 325
190 193 191 185 186 189 189 187 183 183 189 190 187 199 203 190 193 205 218 232 241 253 266 280 291 296 301 305 309 313 316 319 324 328 328 329 330 332 333 334 335 334 335
187 189 190 186 185 192 191 186 184 183 186 188 184 186 191 187 195 204 215 223 234 254 269 281 292 299 303 305 304 304 308 315 319 322 330 334 336 336 337 337 337 339 340
189 191 191 188 186 190 189 188 187 184 184 185 185 186 188 188 191 199 202 212 232 256 274 286 293 301 308 314 312 307 302 311 320 328 334 336 337 338 339 341 341 341 342
192 193 193 190 189 191 190 188 187 183 183 187 187 186 184 183 186 192 193 202 225 256 279 292 297 306 310 313 314 311 327 351 0 5 346 343 339 338 341 343 346 346 348
194 195 194 191 190 191 190 188 188 184 184 187 184 180 179 179 180 181 185 194 217 252 278 292 299 308 312 312 312 324 349 6 10 12 8 347 347 351 354 352 350 355 357
Height
1480 1482 1484 1485 1486 1485 1485 1485 1483 1482 1480 1477 1473 1469 1466 1462 1458 1454 1450 1445 1441 1436 1432 1427 1422 1417 1412 1407 1404 1400 1396 1391 1382 1374 1370 1365 1361 1357 1352 1349 1345 1342 1340
1473 1475 1476 1478 1478 1478 1478 1478 1477 1475 1473 1470 1467 1463 1460 1456 1452 1447 1443 1439 1434 1429 1424 1419 1413 1408 1403 1399 1395 1392 1388 1383 1377 1368 1363 1359 1354 1350 1346 1342 1338 1336 1333
1465 1467 1468 1470 1470 1471 1472 1472 1471 1469 1467 1464 1461 1457 1453 1449 1445 1441 1436 1432 1428 1423 1417 1412 1406 1401 1395 1391 1387 1383 1380 1375 1371 1364 1356 1352 1348 1344 1339 1335 1332 1328 1326
1457 1458 1460 1461 1463 1464 1465 1465 1464 1463 1461 1458 1455 1451 1447 1443 1438 1434 1430 1426 1421 1416 1411 1406 1400 1394 1388 1384 1380 1376 1372 1368 1363 1357 1351 1346 1341 1337 1334 1329 1324 1321 1318
1448 1449 1451 1454 1457 1458 1458 1458 1458 1457 1455 1452 1449 1446 1441 1437 1432 1427 1424 1420 1416 1410 1405 1400 1394 1388 1383 1379 1374 1370 1366 1361 1356 1350 1345 1339 1335 1331 1328 1324 1319 1314 1311
1438 1440 1443 1446 1449 1450 1451 1452 1451 1450 1449 1446 1443 1439 1435 1431 1426 1422 1420 1416 1411 1405 1400 1394 1388 1382 1377 1373 1368 1364 1361 1355 1350 1344 1338 1333 1328 1325 1321 1318 1314 1310 1306
1429 1431 1435 1438 1440 1442 1444 1444 1444 1444 1443 1440 1437 1434 1429 1425 1421 1417 1414 1411 1406 1400 1394 1388 1382 1377 1372 1366 1361 1357 1353 1349 1344 1339 1332 1327 1322 1318 1315 1311 1308 1305 1301
1420 1422 1426 1429 1432 1434 1436 1437 1438 1437 1436 1434 1432 1428 1423 1419 1415 1411 1408 1405 1400 1395 1390 1384 1378 1372 1366 1360 1355 1350 1345 1341 1336 1331 1326 1320 1315 1311 1309 1305 1302 1298 1295
1410 1413 1416 1420 1423 1426 1428 1430 1431 1431 1430 1428 1426 1422 1418 1414 1410 1406 1403 1399 1395 1390 1385 1379 1374 1368 1362 1358 1351 1345 1339 1334 1329 1324 1319 1313 1308 1305 1302 1299 1296 1293 1289
1400 1403 1408 1412 1416 1419 1421 1424 1425 1425 1424 1423 1420 1417 1413 1409 1405 1401 1398 1394 1390 1385 1380 1375 1370 1364 1360 1354 1348 1341 1334 1328 1322 1316 1311 1306 1301 1297 1294 1292 1289 1287 1285
1394 1396 1400 1403 1407 1411 1414 1417 1418 1418 1418 1416 1414 1412 1408 1404 1400 1396 1393 1390 1386 1381 1376 1370 1365 1361 1356 1350 1345 1338 1332 1325 1317 1311 1305 1300 1295 1291 1288 1285 1283 1281 1279
1385 1388 1391 1395 1400 1403 1406 1409 1410 1411 1411 1410 1409 1406 1403 1400 1395 1392 1389 1386 1383 1378 1372 1367 1362 1358 1353 1347 1341 1336 1329 1322 1314 1307 1301 1296 1290 1286 1282 1279 1276 1274 1272
1376 1378 1382 1386 1391 1394 1398 1401 1403 1404 1404 1404 1403 1401 1399 1395 1391 1388 1385 1381 1378 1374 1369 1365 1360 1355 1349 1343 1338 1332 1325 1318 1311 1305 1298 1292 1287 1282 1277 1273 1270 1268 1266
1367 1369 1372 1376 1380 1385 1389 1392 1395 1397 1398 1398 1397 1396 1393 1391 1387 1384 1380 1377 1374 1370 1366 1361 1357 1352 1347 1342 1336 1329 1323 1316 1310 1303 1296 1290 1284 1278 1273 1269 1266 1263 1261
1358 1361 1364 1367 1372 1376 1380 1384 1387 1390 1392 1392 1391 1390 1388 1386 1383 1380 1377 1374 1371 1367 1363 1358 1354 1349 1344 1338 1333 1327 1321 1315 1308 1301 1294 1287 1281 1275 1270 1266 1262 1259 1257
1349 1351 1355 1359 1364 1368 1373 1377 1380 1384 1385 1385 1385 1385 1383 1381 1378 1376 1373 1370 1367 1364 1360 1356 1351 1347 1342 1336 1331 1325 1320 1313 1307 1300 1293 1287 1280 1274 1268 1264 1260 1257 1254
1340 1342 1345 1349 1354 1359 1364 1368 1373 1376 1378 1379 1380 1379 1378 1376 1374 1372 1369 1367 1364 1361 1358 1354 1349 1345 1340 1335 1330 1324 1319 1313 1306 1300 1293 1286 1279 1273 1267 1262 1258 1254 1251
1331 1333 1336 1339 1344 1350 1355 1360 1365 1368 1371 1372 1374 1374 1373 1372 1370 1368 1366 1363 1361 1358 1355 1351 1347 1343 1339 1334 1329 1324 1318 1312 1306 1299 1293 1286 1279 1273 1267 1262 1257 1252 1248
1323 1325 1327 1331 1336 1342 1347 1352 1357 1361 1364 1366 1368 1369 1369 1368 1366 1364 1362 1360 1357 1355 1352 1349 1346 1342 1338 1333 1328 1323 1318 1312 1306 1299 1293 1286 1279 1273 1267 1261 1256 1252 1247
1315 1317 1321 1324 1329 1334 1339 1345 1350 1354 1357 1359 1361 1363 1364 1363 1362 1360 1358 1356 1354 1352 1350 1347 1344 1340 1336 1332 1327 1322 1317 1311 1305 1299 1293 1286 1280 1273 1267 1261 1256 1251 1246
1307 1310 1313 1316 1320 1326 1332 1337 1342 1347 1350 1353 1356 1358 1359 1359 1358 1356 1355 1353 1351 1349 1347 1344 1342 1338 1335 1331 1326 1321 1316 1311 1305 1299 1293 1287 1280 1274 1268 1262 1257 1252 1247
1300 1303 1306 1308 1313 1318 1324 1330 1335 1340 1344 1347 1350 1352 1353 1354 1353 1353 1351 1350 1348 1346 1344 1342 1340 1337 1333 1329 1325 1320 1316 1311 1305 1300 1294 1288 1281 1275 1269 1263 1257 1252 1248
1294 1296 1300 1303 1307 1312 1318 1323 1329 1333 1338 1341 1345 1347 1348 1349 1349 1349 1348 1346 1345 1344 1342 1340 1338 1335 1332 1329 1325 1320 1316 1311 1306 1301 1295 1289 1283 1276 1270 1265 1259 1254 1249
1288 1290 1293 1296 1300 1305 1310 1316 1322 1327 1331 1335 1339 1342 1344 1345 1345 1345 1344 1343 1342 1341 1340 1338 1336 1334 1331 1328 1324 1320 1316 1312 1308 1303 1297 1291 1285 1279 1273 1267 1262 1257 1252
1281 1283 1286 1290 1294 1298 1304 1310 1316 1321 1325 1329 1333 1336 1339 1341 1341 1342 1341 1340 1340 1339 1337 1336 1334 1332 1330 1327 1323 1320 1316 1313 1309 1304 1299 1294 1288 1282 1276 1270 1265 1260 1256
1275 1277 1280 1284 1288 1292 1298 1303 1309 1315 1320 1324 1328 1332 1335 1337 1338 1338 1338 1337 1337 1336 1335 1334 1333 1331 1329 1326 1323 1320 1317 1313 1310 1306 1301 1296 1291 1285 1279 1274 1269 1265 1261